Weather History for KHST - March, 2013

Change the Weather History Date:

Sunday, March 3, 2013

  Actual Average (KMIA) Record (KMIA)
Temperature  
Mean Temperature 57 °F 72 °F  
Max Temperature 66 °F 79 °F 90 °F (2007)
Min Temperature 48 °F 64 °F 32 °F (1980)
Degree Days  
Heating Degree Days 8 1  
Month to date heating degree days 3  
Since 1 July heating degree days 119  
Cooling Degree Days 0 7  
Month to date cooling degree days 21  
Year to date cooling degree days 343  
Growing Degree Days 7 (Base 50)    
Moisture  
Dew Point 44 °F    
Average Humidity 67    
Maximum Humidity 93    
Minimum Humidity 43    
Precipitation  
Precipitation 0.00 in 0.08 in 1.41 in (1978)
Month to date precipitation 0.24  
Year to date precipitation 4.11  
Snow  
Snow 0.00 in - - ()
Month to date snowfall  
Since 1 July snowfall  
Snow Depth -    
Sea Level Pressure  
Sea Level Pressure 30.04 in    
Wind  
Wind Speed 8 mph (NW)    
Max Wind Speed 17 mph    
Max Gust Speed 28 mph    
Visibility 10 miles    
Events Rain    
T = Trace of Precipitation, MM = Missing Value Source: NWS Daily Summary

Daily Weather History Graph

Daily Weather History Graph

Search for Another Location

Airport or City:

Trip Planner

Search our weather history database for the weather conditions in past years. The results will help you decide how hot, cold, wet, or windy it might be!

Date:

Astronomy

Mar. 03, 2013 Rise Set
Actual Time 6:42 AM EST 6:24 PM EST
Civil Twilight 6:19 AM EST 6:47 PM EST
Nautical Twilight 5:52 AM EST 7:14 PM EST
Astronomical Twilight 5:26 AM EST 7:40 PM EST
Moon No Moon Rise 10:35 AM EST
Length of Visible Light 12h 28m
Length of Day
11h 42m
Waning Gibbous, 64% of the Moon is Illuminated
Mar 3
Waning Gibbous
Mar 4
Last Quarter
Mar 11
New
Mar 19
First Quarter
Mar 27
Full

Hourly Weather History & Observations

Time (EST) Temp. Dew Point Humidity Pressure Visibility Wind Dir Wind Speed Gust Speed Precip Events Conditions
12:58 AM 50.0 °F 46.4 °F 87% 30.03 in 10.0 mi Calm Calm - N/A   Clear
1:58 AM 48.2 °F 46.4 °F 93% 30.01 in 10.0 mi Calm Calm - N/A   Scattered Clouds
2:58 AM 50.0 °F 42.8 °F 76% 29.99 in 10.0 mi NNW 5.8 mph - N/A   Scattered Clouds
3:58 AM 51.8 °F 44.6 °F 76% 29.99 in 10.0 mi NNW 9.2 mph - N/A   Mostly Cloudy
4:22 AM 51.8 °F 44.6 °F 76% 30.00 in 10.0 mi NNW 9.2 mph - N/A   Light Drizzle
4:58 AM 50.0 °F 46.4 °F 87% 30.01 in 10.0 mi NNW 11.5 mph - N/A Rain Light Rain
5:14 AM 50.0 °F 46.4 °F 87% 30.00 in 10.0 mi NNW 9.2 mph - N/A   Scattered Clouds
5:27 AM 50.0 °F 46.4 °F 87% 30.01 in 10.0 mi NNW 9.2 mph - N/A Rain Light Rain
5:58 AM 50.0 °F 46.4 °F 87% 30.02 in 10.0 mi NNW 6.9 mph - N/A Rain Light Rain
6:10 AM 50.0 °F 46.4 °F 87% 30.01 in 10.0 mi NNW 6.9 mph - N/A   Overcast
6:22 AM 50.0 °F 46.4 °F 87% 30.01 in 10.0 mi NNW 10.4 mph - N/A Rain Light Rain
6:52 AM 50.0 °F 46.4 °F 87% 30.02 in 10.0 mi NNW 8.1 mph - N/A   Mostly Cloudy
6:58 AM 50.0 °F 46.4 °F 87% 30.02 in 10.0 mi NNW 8.1 mph - N/A   Mostly Cloudy
7:58 AM 51.8 °F 46.4 °F 82% 30.04 in 10.0 mi NNW 6.9 mph - N/A   Partly Cloudy
8:58 AM 55.4 °F 44.6 °F 67% 30.05 in 10.0 mi North 4.6 mph - N/A   Partly Cloudy
9:54 AM 59.0 °F 44.6 °F 59% 30.05 in 10.0 mi NNW 11.5 mph - N/A   Drizzle
9:58 AM 59.0 °F 44.6 °F 59% 30.06 in 10.0 mi NW 12.7 mph - N/A   Drizzle
10:03 AM 59.0 °F 42.8 °F 55% 30.05 in 10.0 mi NNW 11.5 mph - N/A   Clear
10:06 AM 59.0 °F 44.6 °F 59% 30.05 in 10.0 mi NW 13.8 mph - N/A   Light Drizzle
10:15 AM 59.0 °F 44.6 °F 59% 30.05 in 10.0 mi NNW 9.2 mph - N/A   Clear
10:58 AM 60.8 °F 42.8 °F 52% 30.06 in 10.0 mi North 13.8 mph 19.6 mph N/A   Clear
11:58 AM 62.6 °F 42.8 °F 48% 30.05 in 10.0 mi NNW 17.3 mph - N/A   Scattered Clouds
12:58 PM 62.6 °F 42.8 °F 48% 30.04 in 10.0 mi NNW 12.7 mph - N/A   Partly Cloudy
1:19 PM 62.6 °F 42.8 °F 48% 30.03 in 10.0 mi WNW 12.7 mph - N/A   Scattered Clouds
1:58 PM 64.4 °F 44.6 °F 49% 30.03 in 10.0 mi West 11.5 mph 21.9 mph N/A   Clear
2:32 PM 62.6 °F 44.6 °F 52% 30.02 in 10.0 mi West 17.3 mph 26.5 mph N/A   Partly Cloudy
2:58 PM 64.4 °F 44.6 °F 49% 30.03 in 10.0 mi West 15.0 mph 19.6 mph N/A   Partly Cloudy
3:43 PM 64.4 °F 42.8 °F 45% 30.02 in 10.0 mi NW 15.0 mph 26.5 mph N/A   Partly Cloudy
3:58 PM 66.2 °F 42.8 °F 43% 30.03 in 10.0 mi West 17.3 mph 27.6 mph N/A   Partly Cloudy
4:58 PM 62.6 °F 42.8 °F 48% 30.05 in 10.0 mi WNW 16.1 mph 23.0 mph N/A   Clear
5:58 PM 59.0 °F 41.0 °F 51% 30.07 in 10.0 mi WNW 17.3 mph - N/A   Clear
6:58 PM 57.2 °F 42.8 °F 59% 30.10 in 10.0 mi WNW 12.7 mph - N/A   Clear
7:58 PM 55.4 °F 42.8 °F 63% 30.10 in 10.0 mi WNW 16.1 mph 26.5 mph N/A   Clear
8:58 PM 53.6 °F 42.8 °F 67% 30.14 in 10.0 mi West 8.1 mph - N/A   Clear
9:58 PM 53.6 °F 42.8 °F 67% - 10.0 mi West 8.1 mph - N/A   Clear
10:58 PM 55.4 °F 42.8 °F 63% 30.14 in 7.0 mi West 5.8 mph - N/A   Clear
11:58 PM 51.8 °F 41.0 °F 67% 30.14 in 7.0 mi West 5.8 mph - N/A   Clear